Find OneWeb SL0207

NORAD ID: 48242 Int'l Des: 2021-031 Owner: ONEWEBN Country: UK Constellation: oneweb operational
LEOCIRCULARPOLARONEWEB_TYPE

現在のビュー

3D地球を読み込み中...

OneWeb SL0207について

説明を読み込み中...

次回通過

Passes for default location (London). Set your location on the main map for personalized predictions.

高度履歴

Loading altitude history...

軌道要素

1 48242U 21031AJ 26149.83380518 .00000117 00000-0 28086-3 0 9991
2 48242 87.8953 293.3577 0002076 103.6374 256.4987 13.14501886245882
Epoch: May 29, 2026 • Age: 20 hours

現在のステータス

高度 1225.5 km
速度 7.24 km/s
衛星直下点 -47.48°S, 164.75°E
打ち上げ日 Apr 25, 2021
運用期間 5 years
タイプ internet

技術仕様

分類 Payload
質量 148.00 kg
乾燥質量 140.00 kg
総質量 148.00 kg
長さ 1.30 m
直径 1.00 m
スパン 5.00 m
形状 Trapezoid+2 pan
製造者 ONEWUS
バスタイプ ARROW
フェーズステータス In Orbit
所有者/国 ONEWEBN/UK

Most Searched